EW8697 Weather Reports


Display with metric or nautical units.
time (UTC)temp
F
wind
direction
speed
MPH
gust
MPH
rain 1hr
in
rain 24hr
in
rain mn
in
humidity
%
barometer
mb
20260508044516 47 124 0.0 0.0 0.00 0.00 0.00 64 1009.1
20260508043013 47 124 0.0 0.0 0.00 0.00 0.00 64 1009.1
20260508041527 47 123 0.0 1.0 0.00 0.00 0.00 64 1009.0
20260508040038 46 124 0.0 0.0 0.00 0.00 0.00 66 1009.1
20260508034529 45 123 0.0 0.0 0.00 0.00 0.00 69 1009.1
20260508033017 44 124 0.0 0.0 0.00 0.00 0.00 71 1009.1
20260508031516 43 124 0.0 0.0 0.00 0.00 0.00 70 1008.8
20260508030028 44 124 0.0 0.0 0.00 0.00 0.00 69 1008.9
20260508024526 44 123 0.0 0.0 0.00 0.00 0.00 67 1008.8
20260508023021 44 124 0.0 0.0 0.00 0.00 0.00 67 1008.8
20260508021515 44 123 0.0 0.0 0.00 0.00 0.00 63 1008.9
20260508020011 45 123 0.0 0.0 0.00 0.00 0.00 62 1008.7
20260508014513 46 123 0.0 0.0 0.00 0.00 0.00 59 1008.8
20260508013025 47 124 0.0 0.0 0.00 0.00 0.00 55 1008.6
20260508011520 48 123 0.0 0.0 0.00 0.00 0.00 54 1008.5
20260508010020 49 124 0.0 0.0 0.00 0.00 0.00 51 1008.6
20260508004517 49 124 0.0 0.0 0.00 0.00 0.00 50 1008.5
20260508003012 50 124 0.0 0.0 0.00 0.00 0.00 48 1008.4
20260508001526 51 123 0.0 0.0 0.00 0.00 0.00 46 1008.2
20260508000022 52 123 0.0 0.0 0.00 0.00 0.00 44 1008.1
20260507234530 52 124 0.0 4.0 0.00 0.00 0.00 44 1007.9
20260507233018 53 124 0.0 1.0 0.00 0.00 0.00 44 1007.8
20260507231509 53 123 0.0 0.0 0.00 0.00 0.00 44 1007.8
20260507230030 53 123 0.0 3.0 0.00 0.00 0.00 45 1008.0
20260507224522 55 124 0.0 0.0 0.00 0.00 0.00 42 1007.9
20260507223021 54 124 0.0 4.0 0.00 0.00 0.00 44 1007.9
20260507221527 53 124 0.0 3.0 0.00 0.00 0.00 51 1008.0
20260507220012 54 124 0.0 7.0 0.00 0.00 0.00 50 1007.9
20260507214511 55 123 0.0 16.0 0.00 0.00 0.00 47 1007.7
20260507213031 55 124 0.0 9.0 0.00 0.00 0.00 44 1007.5
20260507211521 55 123 0.0 11.0 0.00 0.00 0.00 45 1007.3
20260507210026 54 123 0.0 11.0 0.00 0.00 0.00 47 1007.1
20260507204513 54 123 0.0 9.0 0.00 0.00 0.00 47 1007.1
20260507203016 55 123 0.0 7.0 0.00 0.00 0.00 46 1006.9
20260507201528 56 124 0.0 13.0 0.00 0.00 0.00 44 1006.9
20260507200024 56 123 0.0 2.0 0.00 0.00 0.00 45 1006.9
20260507194531 55 123 0.0 8.0 0.00 0.00 0.00 46 1007.1
20260507193017 57 123 0.0 12.0 0.00 0.00 0.00 44 1007.2
20260507191512 56 124 0.0 9.0 0.00 0.00 0.00 49 1007.3
20260507190013 55 123 0.0 11.0 0.00 0.00 0.00 45 1007.3
20260507184535 55 123 0.0 8.0 0.00 0.00 0.00 45 1007.4
20260507183024 56 124 0.0 3.0 0.00 0.00 0.00 48 1007.4
20260507181521 55 124 0.0 3.0 0.00 0.00 0.00 45 1007.3
20260507180018 54 123 0.0 1.0 0.00 0.00 0.00 48 1007.5
20260507174513 54 123 0.0 6.0 0.00 0.00 0.00 47 1007.6
20260507173045 55 123 0.0 9.0 0.00 0.00 0.00 45 1007.6
20260507171520 55 123 0.0 6.0 0.00 0.00 0.00 42 1007.6
20260507170021 54 124 0.0 9.0 0.00 0.00 0.00 45 1007.7
20260507164521 54 123 0.0 12.0 0.00 0.00 0.00 46 1007.8
20260507163010 54 124 0.0 1.0 0.00 0.00 0.00 48 1007.8
20260507161528 54 123 0.0 4.0 0.00 0.00 0.00 47 1007.7
20260507160027 54 124 0.0 0.0 0.00 0.00 0.00 51 1007.8
20260507154520 54 124 0.0 1.0 0.00 0.00 0.00 46 1007.9
20260507153018 52 124 0.0 5.0 0.00 0.00 0.00 49 1008.0
20260507151510 53 123 0.0 6.0 0.00 0.00 0.00 52 1008.0
20260507150034 54 123 0.0 0.0 0.00 0.00 0.00 53 1008.1
20260507144534 54 123 0.0 0.0 0.00 0.00 0.00 59 1008.2
20260507143026 51 123 0.0 0.0 0.00 0.00 0.00 65 1008.4
20260507141520 51 124 0.0 0.0 0.00 0.00 0.00 67 1008.4
20260507140019 51 124 0.0 0.0 0.00 0.00 0.00 69 1008.6
20260507134511 49 124 0.0 0.0 0.00 0.00 0.00 73 1008.8
20260507133031 48 122 0.0 0.0 0.00 0.00 0.00 73 1009.0
20260507131520 48 124 0.0 0.0 0.00 0.00 0.00 75 1008.9
20260507130019 47 124 0.0 0.0 0.00 0.00 0.00 73 1008.9
20260507124520 47 124 0.0 0.0 0.00 0.00 0.00 76 1008.8
20260507123012 46 124 0.0 0.0 0.00 0.00 0.00 78 1008.8
20260507121514 45 123 0.0 1.0 0.00 0.00 0.00 79 1008.8
20260507120024 44 124 0.0 0.0 0.00 0.00 0.00 84 1008.8
20260507114517 42 124 0.0 0.0 0.00 0.00 0.00 88 1008.7
20260507113037 41 124 0.0 0.0 0.00 0.00 0.00 90 1008.7
20260507111511 40 124 0.0 0.0 0.00 0.00 0.00 90 1008.6
20260507110029 39 123 0.0 0.0 0.00 0.00 0.00 89 1008.6
20260507104534 39 124 0.0 0.0 0.00 0.00 0.00 89 1008.4
20260507103026 39 124 0.0 0.0 0.00 0.00 0.00 89 1008.3
20260507101520 39 124 0.0 0.0 0.00 0.00 0.00 88 1008.3
20260507100013 40 124 0.0 0.0 0.00 0.00 0.00 88 1008.3
20260507094507 40 123 0.0 0.0 0.00 0.05 0.00 88 1008.3
20260507091524 40 124 0.0 0.0 0.00 0.05 0.00 89 1008.4
20260507090023 39 124 0.0 0.0 0.00 0.05 0.00 89 1008.5
20260507084515 39 123 0.0 0.0 0.00 0.11 0.00 89 1008.5
20260507083010 39 123 0.0 0.0 0.00 0.11 0.00 88 1008.6
20260507081535 39 123 0.0 0.0 0.00 0.11 0.00 87 1008.6
20260507080024 40 123 0.0 0.0 0.00 0.11 0.00 87 1008.6
20260507074518 40 124 0.0 0.0 0.00 0.24 0.00 87 1008.6
20260507073024 40 124 0.0 0.0 0.00 0.24 0.00 87 1008.7
20260507071511 40 124 0.0 0.0 0.00 0.24 0.00 87 1008.6
20260507070026 39 124 0.0 0.0 0.00 0.24 0.00 87 1008.7
20260507064527 40 124 0.0 0.0 0.00 0.36 0.00 86 1008.7
20260507063024 40 123 0.0 0.0 0.00 0.36 0.00 85 1008.9
20260507061518 41 124 0.0 0.0 0.00 0.36 0.00 84 1009.0
20260507060015 41 124 0.0 0.0 0.00 0.36 0.00 83 1009.2
20260507054529 42 123 0.0 0.0 0.00 0.42 0.00 83 1009.3
20260507053027 43 124 0.0 0.0 0.00 0.42 0.00 82 1009.3
20260507051521 43 124 0.0 0.0 0.00 0.42 0.00 82 1009.3
20260507050024 43 123 0.0 0.0 0.00 0.42 0.00 82 1009.4